Time,TemperatureF,DewpointF,PressureIn,WindDirection,WindDirectionDegrees,WindSpeedMPH,WindSpeedGustMPH,Humidity,HourlyPrecipIn,Conditions,Clouds,dailyrainin,SoftwareType,DateUTC
2013-01-15 00:00:00,64.6,53.8,30.21,East,90,0.0,1.1,68,0.00,,---,0.00,VWS V14.01,2013-01-15 05:00:00,
2013-01-15 00:06:00,64.6,53.8,30.21,ESE,112,0.0,0.0,68,0.00,,---,0.00,VWS V14.01,2013-01-15 05:06:00,
2013-01-15 00:07:00,64.4,53.6,30.21,ESE,112,0.0,0.0,68,0.00,,---,0.00,VWS V14.01,2013-01-15 05:07:00,
2013-01-15 00:09:00,64.4,53.6,30.21,East,90,0.0,0.0,68,0.00,,---,0.00,VWS V14.01,2013-01-15 05:09:00,
2013-01-15 00:14:00,64.4,53.6,30.24,East,90,0.0,0.0,68,0.00,,---,0.00,VWS V14.01,2013-01-15 05:14:00,
2013-01-15 00:20:00,64.2,53.8,30.24,East,90,0.0,0.0,69,0.00,,---,0.00,VWS V14.01,2013-01-15 05:20:00,
2013-01-15 00:25:00,64.2,53.8,30.24,East,90,0.0,0.0,69,0.00,,---,0.00,VWS V14.01,2013-01-15 05:25:00,
2013-01-15 00:30:00,64.2,53.8,30.21,East,90,0.0,0.0,69,0.00,,---,0.00,VWS V14.01,2013-01-15 05:30:00,
2013-01-15 00:35:00,64.2,53.8,30.21,East,90,0.0,0.0,69,0.00,,---,0.00,VWS V14.01,2013-01-15 05:35:00,
2013-01-15 00:40:00,64.0,53.7,30.21,East,90,0.0,0.0,69,0.00,,---,0.00,VWS V14.01,2013-01-15 05:40:00,
2013-01-15 00:46:00,63.9,53.5,30.24,East,90,0.0,0.0,69,0.00,,---,0.00,VWS V14.01,2013-01-15 05:46:00,
2013-01-15 00:51:00,63.9,53.5,30.24,East,90,0.0,0.0,69,0.00,,---,0.00,VWS V14.01,2013-01-15 05:51:00,
2013-01-15 00:56:00,63.7,53.3,30.24,East,90,0.0,0.0,69,0.00,,---,0.00,VWS V14.01,2013-01-15 05:56:00,
2013-01-15 01:01:00,63.7,53.3,30.21,East,90,0.0,0.0,69,0.00,,---,0.00,VWS V14.01,2013-01-15 06:01:00,
2013-01-15 01:07:00,63.5,53.2,30.21,East,90,0.0,0.0,69,0.00,,---,0.00,VWS V14.01,2013-01-15 06:07:00,
2013-01-15 01:12:00,63.5,53.5,30.21,East,90,0.0,0.0,70,0.00,,---,0.00,VWS V14.01,2013-01-15 06:12:00,
2013-01-15 01:17:00,63.5,53.5,30.21,ESE,112,0.0,0.0,70,0.00,,---,0.00,VWS V14.01,2013-01-15 06:17:00,
2013-01-15 01:22:00,63.3,53.4,30.21,ESE,112,0.0,0.0,70,0.00,,---,0.00,VWS V14.01,2013-01-15 06:22:00,
2013-01-15 01:28:00,63.3,53.4,30.21,ESE,112,0.0,0.0,70,0.00,,---,0.00,VWS V14.01,2013-01-15 06:28:00,
2013-01-15 01:33:00,63.3,53.4,30.21,ESE,112,0.0,0.0,70,0.00,,---,0.00,VWS V14.01,2013-01-15 06:33:00,
2013-01-15 01:38:00,63.1,53.6,30.21,East,90,0.0,0.0,71,0.00,,---,0.00,VWS V14.01,2013-01-15 06:38:00,
2013-01-15 01:43:00,63.1,53.6,30.21,East,90,0.0,0.0,71,0.00,,---,0.00,VWS V14.01,2013-01-15 06:43:00,
2013-01-15 01:49:00,63.1,53.6,30.21,East,90,0.0,0.0,71,0.00,,---,0.00,VWS V14.01,2013-01-15 06:49:00,
2013-01-15 01:54:00,63.1,53.6,30.21,East,90,0.0,0.0,71,0.00,,---,0.00,VWS V14.01,2013-01-15 06:54:00,
2013-01-15 01:59:00,63.0,53.4,30.21,East,90,0.0,0.0,71,0.00,,---,0.00,VWS V14.01,2013-01-15 06:59:00,
2013-01-15 02:04:00,63.0,53.8,30.21,East,90,0.0,0.0,72,0.00,,---,0.00,VWS V14.01,2013-01-15 07:04:00,
2013-01-15 02:10:00,63.0,53.8,30.21,ENE,68,0.0,0.9,72,0.00,,---,0.00,VWS V14.01,2013-01-15 07:10:00,
2013-01-15 02:16:00,63.0,53.8,30.21,NE,45,0.0,0.0,72,0.00,,---,0.00,VWS V14.01,2013-01-15 07:16:00,
2013-01-15 02:22:00,63.0,53.8,30.21,NE,45,0.0,0.0,72,0.00,,---,0.00,VWS V14.01,2013-01-15 07:22:00,
2013-01-15 02:27:00,63.0,53.8,30.21,ESE,112,0.0,0.0,72,0.00,,---,0.00,VWS V14.01,2013-01-15 07:27:00,
2013-01-15 02:32:00,63.0,53.8,30.21,ESE,112,0.0,0.0,72,0.00,,---,0.00,VWS V14.01,2013-01-15 07:32:00,
2013-01-15 02:38:00,62.8,53.6,30.21,ESE,112,0.0,1.3,72,0.00,,---,0.00,VWS V14.01,2013-01-15 07:38:00,
2013-01-15 02:44:00,62.8,53.6,30.21,ESE,112,0.0,0.0,72,0.00,,---,0.00,VWS V14.01,2013-01-15 07:44:00,
2013-01-15 02:49:00,62.8,53.6,30.21,ENE,68,0.0,0.0,72,0.00,,---,0.00,VWS V14.01,2013-01-15 07:49:00,
2013-01-15 02:54:00,62.6,53.8,30.21,ENE,68,0.0,0.0,73,0.00,,---,0.00,VWS V14.01,2013-01-15 07:54:00,
2013-01-15 02:59:00,62.6,53.8,30.21,ENE,68,0.0,0.0,73,0.00,,---,0.00,VWS V14.01,2013-01-15 07:59:00,
2013-01-15 03:04:00,62.6,53.8,30.21,ENE,68,0.0,0.0,73,0.00,,---,0.00,VWS V14.01,2013-01-15 08:04:00,
2013-01-15 03:09:00,62.6,53.8,30.21,East,90,0.0,0.0,73,0.00,,---,0.00,VWS V14.01,2013-01-15 08:09:00,
2013-01-15 03:14:00,62.6,53.8,30.21,East,90,0.0,0.0,73,0.00,,---,0.00,VWS V14.01,2013-01-15 08:14:00,
2013-01-15 03:20:00,62.4,53.7,30.21,ENE,68,1.1,1.1,73,0.00,,---,0.00,VWS V14.01,2013-01-15 08:20:00,
2013-01-15 03:25:00,62.4,53.7,30.21,ENE,68,0.0,0.0,73,0.00,,---,0.00,VWS V14.01,2013-01-15 08:25:00,
2013-01-15 03:30:00,62.4,54.0,30.21,ENE,68,0.0,0.0,74,0.00,,---,0.00,VWS V14.01,2013-01-15 08:30:00,
2013-01-15 03:35:00,62.4,54.0,30.21,ENE,68,0.0,0.0,74,0.00,,---,0.00,VWS V14.01,2013-01-15 08:35:00,
2013-01-15 03:41:00,62.4,54.0,30.21,ENE,68,0.0,0.0,74,0.00,,---,0.00,VWS V14.01,2013-01-15 08:41:00,
2013-01-15 03:46:00,62.2,53.9,30.21,ESE,112,0.9,0.9,74,0.00,,---,0.00,VWS V14.01,2013-01-15 08:46:00,
2013-01-15 03:51:00,62.2,53.9,30.21,ESE,112,0.0,0.0,74,0.00,,---,0.00,VWS V14.01,2013-01-15 08:51:00,
2013-01-15 03:56:00,62.2,53.9,30.21,ESE,112,0.0,0.0,74,0.00,,---,0.00,VWS V14.01,2013-01-15 08:56:00,
2013-01-15 04:02:00,62.1,53.7,30.18,ESE,112,0.0,0.0,74,0.00,,---,0.00,VWS V14.01,2013-01-15 09:02:00,
2013-01-15 04:08:00,62.1,53.7,30.18,ESE,112,0.0,0.0,74,0.00,,---,0.00,VWS V14.01,2013-01-15 09:08:00,
2013-01-15 04:13:00,62.1,53.7,30.18,ESE,112,0.0,0.0,74,0.00,,---,0.00,VWS V14.01,2013-01-15 09:13:00,
2013-01-15 04:18:00,61.9,53.5,30.18,ESE,112,0.0,0.0,74,0.00,,---,0.00,VWS V14.01,2013-01-15 09:18:00,
2013-01-15 04:23:00,61.9,53.9,30.18,ESE,112,0.0,0.0,75,0.00,,---,0.00,VWS V14.01,2013-01-15 09:23:00,
2013-01-15 04:28:00,61.9,53.9,30.18,ESE,112,0.0,0.0,75,0.00,,---,0.00,VWS V14.01,2013-01-15 09:28:00,
2013-01-15 04:33:00,61.9,53.9,30.18,ESE,112,0.0,0.0,75,0.00,,---,0.00,VWS V14.01,2013-01-15 09:33:00,
2013-01-15 04:38:00,61.7,53.7,30.18,ESE,112,0.0,0.0,75,0.00,,---,0.00,VWS V14.01,2013-01-15 09:38:00,
2013-01-15 04:44:00,61.7,53.7,30.18,ESE,112,0.0,0.0,75,0.00,,---,0.00,VWS V14.01,2013-01-15 09:44:00,
2013-01-15 04:49:00,61.7,53.7,30.18,ESE,112,0.0,0.0,75,0.00,,---,0.00,VWS V14.01,2013-01-15 09:49:00,
2013-01-15 04:54:00,61.7,53.7,30.18,ESE,112,0.0,0.0,75,0.00,,---,0.00,VWS V14.01,2013-01-15 09:54:00,
2013-01-15 04:59:00,61.5,53.5,30.18,ESE,112,0.0,0.0,75,0.00,,---,0.00,VWS V14.01,2013-01-15 09:59:00,
2013-01-15 05:05:00,61.5,53.5,30.18,ESE,112,0.0,0.0,75,0.00,,---,0.00,VWS V14.01,2013-01-15 10:05:00,
2013-01-15 05:10:00,61.5,53.5,30.18,ESE,112,0.0,0.0,75,0.00,,---,0.00,VWS V14.01,2013-01-15 10:10:00,
2013-01-15 05:15:00,61.3,53.7,30.18,ESE,112,0.0,0.0,76,0.00,,---,0.00,VWS V14.01,2013-01-15 10:15:00,
2013-01-15 05:20:00,61.3,53.7,30.18,ESE,112,0.0,0.0,76,0.00,,---,0.00,VWS V14.01,2013-01-15 10:20:00,
2013-01-15 05:25:00,61.3,53.7,30.18,ESE,112,0.0,0.0,76,0.00,,---,0.00,VWS V14.01,2013-01-15 10:25:00,
2013-01-15 05:30:00,61.3,53.7,30.18,ESE,112,0.0,0.0,76,0.00,,---,0.00,VWS V14.01,2013-01-15 10:30:00,
2013-01-15 05:35:00,61.3,53.7,30.18,ESE,112,0.0,0.0,76,0.00,,---,0.00,VWS V14.01,2013-01-15 10:35:00,
2013-01-15 05:40:00,61.3,53.7,30.18,ESE,112,0.0,0.0,76,0.00,,---,0.00,VWS V14.01,2013-01-15 10:40:00,
2013-01-15 05:46:00,61.3,53.7,30.18,ESE,112,0.0,0.0,76,0.00,,---,0.00,VWS V14.01,2013-01-15 10:46:00,
2013-01-15 05:51:00,61.3,54.1,30.18,ESE,112,0.0,0.0,77,0.00,,---,0.00,VWS V14.01,2013-01-15 10:51:00,
2013-01-15 05:56:00,61.3,54.1,30.18,ESE,112,0.0,0.0,77,0.00,,---,0.00,VWS V14.01,2013-01-15 10:56:00,
2013-01-15 06:01:00,61.3,54.1,30.18,ESE,112,0.0,0.0,77,0.00,,---,0.00,VWS V14.01,2013-01-15 11:01:00,
2013-01-15 06:06:00,61.2,53.5,30.18,ESE,112,0.0,0.0,76,0.00,,---,0.00,VWS V14.01,2013-01-15 11:06:00,
2013-01-15 06:11:00,61.2,53.5,30.18,ESE,112,0.0,0.0,76,0.00,,---,0.00,VWS V14.01,2013-01-15 11:11:00,
2013-01-15 06:16:00,61.2,53.9,30.18,ESE,112,0.0,0.0,77,0.00,,---,0.00,VWS V14.01,2013-01-15 11:16:00,
2013-01-15 06:21:00,61.0,53.7,30.18,ESE,112,0.0,0.0,77,0.00,,---,0.00,VWS V14.01,2013-01-15 11:21:00,
2013-01-15 06:26:00,61.0,53.7,30.18,ESE,112,0.0,0.0,77,0.00,,---,0.00,VWS V14.01,2013-01-15 11:26:00,
2013-01-15 06:31:00,61.0,53.7,30.18,ESE,112,0.0,0.0,77,0.00,,---,0.00,VWS V14.01,2013-01-15 11:31:00,
2013-01-15 06:36:00,61.0,53.7,30.18,ESE,112,0.0,0.0,77,0.00,,---,0.00,VWS V14.01,2013-01-15 11:36:00,
2013-01-15 06:41:00,60.8,53.5,30.18,ESE,112,0.0,0.0,77,0.00,,---,0.00,VWS V14.01,2013-01-15 11:41:00,
2013-01-15 06:47:00,60.8,53.5,30.18,ESE,112,0.0,0.0,77,0.00,,---,0.00,VWS V14.01,2013-01-15 11:47:00,
2013-01-15 06:53:00,60.8,53.5,30.18,ESE,112,0.0,0.0,77,0.00,,---,0.00,VWS V14.01,2013-01-15 11:53:00,
2013-01-15 06:58:00,60.8,53.5,30.18,ESE,112,0.0,0.0,77,0.00,,---,0.00,VWS V14.01,2013-01-15 11:58:00,
2013-01-15 07:03:00,60.8,53.5,30.18,ESE,112,0.0,0.0,77,0.00,,---,0.00,VWS V14.01,2013-01-15 12:03:00,
2013-01-15 07:08:00,60.8,53.5,30.18,ESE,112,0.0,0.0,77,0.00,,---,0.00,VWS V14.01,2013-01-15 12:08:00,
2013-01-15 07:13:00,60.8,53.5,30.21,ESE,112,0.0,0.0,77,0.00,,---,0.00,VWS V14.01,2013-01-15 12:13:00,
2013-01-15 07:18:00,60.8,53.9,30.21,ESE,112,0.0,0.0,78,0.00,,---,0.00,VWS V14.01,2013-01-15 12:18:00,
2013-01-15 07:24:00,60.8,53.9,30.21,ESE,112,0.0,0.0,78,0.00,,---,0.00,VWS V14.01,2013-01-15 12:24:00,
2013-01-15 07:29:00,60.8,53.9,30.18,ESE,112,0.0,0.0,78,0.00,,---,0.00,VWS V14.01,2013-01-15 12:29:00,
2013-01-15 07:34:00,60.8,53.9,30.18,ESE,112,0.0,0.0,78,0.00,,---,0.00,VWS V14.01,2013-01-15 12:34:00,
2013-01-15 07:39:00,60.8,53.9,30.18,ESE,112,0.0,0.0,78,0.00,,---,0.00,VWS V14.01,2013-01-15 12:39:00,
2013-01-15 07:44:00,60.8,53.9,30.21,East,90,0.0,0.0,78,0.00,,---,0.00,VWS V14.01,2013-01-15 12:44:00,
2013-01-15 07:49:00,60.8,54.3,30.21,East,90,0.0,0.0,79,0.00,,---,0.00,VWS V14.01,2013-01-15 12:49:00,
2013-01-15 07:54:00,61.0,54.4,30.21,East,90,0.0,0.9,79,0.00,,---,0.00,VWS V14.01,2013-01-15 12:54:00,
2013-01-15 07:59:00,61.0,54.4,30.21,East,90,0.9,0.9,79,0.00,,---,0.00,VWS V14.01,2013-01-15 12:59:00,
2013-01-15 08:05:00,61.2,55.0,30.21,East,90,0.0,1.3,80,0.00,,---,0.00,VWS V14.01,2013-01-15 13:05:00,
2013-01-15 08:10:00,61.5,55.3,30.21,East,90,0.0,0.0,80,0.00,,---,0.00,VWS V14.01,2013-01-15 13:10:00,
2013-01-15 08:15:00,61.7,55.8,30.21,East,90,1.6,2.5,81,0.00,,---,0.00,VWS V14.01,2013-01-15 13:15:00,
2013-01-15 08:20:00,62.2,56.7,30.21,ENE,68,2.9,2.9,82,0.00,,---,0.00,VWS V14.01,2013-01-15 13:20:00,
2013-01-15 08:25:00,62.6,56.7,30.21,East,90,1.6,2.2,81,0.00,,---,0.00,VWS V14.01,2013-01-15 13:25:00,
2013-01-15 08:30:00,62.8,57.2,30.21,East,90,2.0,2.0,82,0.00,,---,0.00,VWS V14.01,2013-01-15 13:30:00,
2013-01-15 08:35:00,63.1,57.6,30.21,ENE,68,1.1,1.1,82,0.00,,---,0.00,VWS V14.01,2013-01-15 13:35:00,
2013-01-15 08:40:00,63.5,57.9,30.21,SE,135,2.2,2.2,82,0.00,,---,0.00,VWS V14.01,2013-01-15 13:40:00,
2013-01-15 08:45:00,63.9,58.6,30.21,ESE,112,1.1,1.6,83,0.00,,---,0.00,VWS V14.01,2013-01-15 13:45:00,
2013-01-15 08:50:00,64.2,59.0,30.21,NE,45,2.0,2.9,83,0.00,,---,0.00,VWS V14.01,2013-01-15 13:50:00,
2013-01-15 08:55:00,64.9,59.7,30.21,East,90,3.1,3.8,83,0.00,,---,0.00,VWS V14.01,2013-01-15 13:55:00,
2013-01-15 09:00:00,65.3,60.0,30.21,East,90,3.4,3.4,83,0.00,,---,0.00,VWS V14.01,2013-01-15 14:00:00,
2013-01-15 09:05:00,65.8,60.9,30.21,East,90,1.1,2.7,84,0.00,,---,0.00,VWS V14.01,2013-01-15 14:05:00,
2013-01-15 09:10:00,66.2,60.9,30.21,ENE,68,2.0,2.0,83,0.00,,---,0.00,VWS V14.01,2013-01-15 14:10:00,
2013-01-15 09:15:00,66.7,61.4,30.21,ENE,68,2.0,2.0,83,0.00,,---,0.00,VWS V14.01,2013-01-15 14:15:00,
2013-01-15 09:21:00,67.3,62.0,30.21,ENE,68,2.0,2.0,83,0.00,,---,0.00,VWS V14.01,2013-01-15 14:21:00,
2013-01-15 09:26:00,68.0,62.7,30.21,ESE,112,3.1,3.1,83,0.00,,---,0.00,VWS V14.01,2013-01-15 14:26:00,
2013-01-15 09:32:00,68.4,62.7,30.21,East,90,2.0,2.0,82,0.00,,---,0.00,VWS V14.01,2013-01-15 14:32:00,
2013-01-15 09:37:00,69.1,63.4,30.21,ESE,112,2.7,3.6,82,0.00,,---,0.00,VWS V14.01,2013-01-15 14:37:00,
2013-01-15 09:42:00,69.8,63.7,30.21,SE,135,2.7,3.4,81,0.00,,---,0.00,VWS V14.01,2013-01-15 14:42:00,
2013-01-15 09:48:00,70.2,63.7,30.21,NE,45,2.7,3.4,80,0.00,,---,0.00,VWS V14.01,2013-01-15 14:48:00,
2013-01-15 09:53:00,70.9,64.1,30.21,NNE,22,2.7,2.7,79,0.00,,---,0.00,VWS V14.01,2013-01-15 14:53:00,
2013-01-15 09:58:00,71.6,64.4,30.21,South,180,3.1,3.1,78,0.00,,---,0.00,VWS V14.01,2013-01-15 14:58:00,
2013-01-15 10:03:00,72.1,64.2,30.21,ENE,68,1.6,4.7,76,0.00,,---,0.00,VWS V14.01,2013-01-15 15:03:00,
2013-01-15 10:08:00,72.7,64.3,30.21,East,90,1.6,4.0,75,0.00,,---,0.00,VWS V14.01,2013-01-15 15:08:00,
2013-01-15 10:13:00,73.2,64.1,30.21,ENE,68,3.6,3.6,73,0.00,,---,0.00,VWS V14.01,2013-01-15 15:13:00,
2013-01-15 10:19:00,73.8,63.8,30.21,ESE,112,3.6,5.8,71,0.00,,---,0.00,VWS V14.01,2013-01-15 15:19:00,
2013-01-15 10:25:00,74.3,63.9,30.21,ENE,68,2.7,3.1,70,0.00,,---,0.00,VWS V14.01,2013-01-15 15:25:00,
2013-01-15 10:30:00,75.0,63.8,30.21,NE,45,4.3,4.9,68,0.00,,---,0.00,VWS V14.01,2013-01-15 15:30:00,
2013-01-15 10:35:00,75.4,63.2,30.21,ESE,112,5.8,5.8,66,0.00,,---,0.00,VWS V14.01,2013-01-15 15:35:00,
2013-01-15 10:40:00,75.9,63.3,30.21,SSE,158,4.0,5.8,65,0.00,,---,0.00,VWS V14.01,2013-01-15 15:40:00,
2013-01-15 10:45:00,76.1,63.0,30.21,SSW,202,3.8,4.3,64,0.00,,---,0.00,VWS V14.01,2013-01-15 15:45:00,
2013-01-15 10:50:00,76.5,62.0,30.21,SE,135,1.6,6.5,61,0.00,,---,0.00,VWS V14.01,2013-01-15 15:50:00,
2013-01-15 10:55:00,77.0,62.5,30.21,SSE,158,2.9,4.3,61,0.00,,---,0.00,VWS V14.01,2013-01-15 15:55:00,
2013-01-15 11:00:00,77.7,63.2,30.21,East,90,4.0,4.0,61,0.00,,---,0.00,VWS V14.01,2013-01-15 16:00:00,
2013-01-15 11:05:00,77.4,60.5,30.21,ESE,112,2.7,2.7,56,0.00,,---,0.00,VWS V14.01,2013-01-15 16:05:00,
2013-01-15 11:10:00,77.4,60.5,30.21,SE,135,2.9,5.8,56,0.00,,---,0.00,VWS V14.01,2013-01-15 16:10:00,
2013-01-15 11:15:00,77.9,61.5,30.21,SSW,202,3.6,6.3,57,0.00,,---,0.00,VWS V14.01,2013-01-15 16:15:00,
2013-01-15 11:20:00,78.8,61.8,30.21,SE,135,3.1,4.7,56,0.00,,---,0.00,VWS V14.01,2013-01-15 16:20:00,
2013-01-15 11:25:00,78.4,59.4,30.21,West,270,2.7,6.0,52,0.00,,---,0.00,VWS V14.01,2013-01-15 16:25:00,
2013-01-15 11:30:00,78.3,59.2,30.21,ENE,68,6.0,6.0,52,0.00,,---,0.00,VWS V14.01,2013-01-15 16:30:00,
2013-01-15 11:35:00,78.4,58.8,30.21,South,180,6.3,6.3,51,0.00,,---,0.00,VWS V14.01,2013-01-15 16:35:00,
2013-01-15 11:41:00,79.0,59.3,30.21,ESE,112,2.2,2.7,51,0.00,,---,0.00,VWS V14.01,2013-01-15 16:41:00,
2013-01-15 11:46:00,79.5,59.3,30.21,SE,135,3.8,3.8,50,0.00,,---,0.00,VWS V14.01,2013-01-15 16:46:00,
2013-01-15 11:51:00,79.5,58.7,30.21,ESE,112,2.9,3.4,49,0.00,,---,0.00,VWS V14.01,2013-01-15 16:51:00,
2013-01-15 11:56:00,79.3,58.0,30.21,SE,135,1.3,3.4,48,0.00,,---,0.00,VWS V14.01,2013-01-15 16:56:00,
2013-01-15 12:01:00,79.2,57.2,30.18,ESE,112,1.3,2.2,47,0.00,,---,0.00,VWS V14.01,2013-01-15 17:01:00,
2013-01-15 12:06:00,79.3,58.0,30.18,SE,135,1.6,1.6,48,0.00,,---,0.00,VWS V14.01,2013-01-15 17:06:00,
2013-01-15 12:12:00,80.1,58.6,30.18,SSW,202,1.1,1.1,48,0.00,,---,0.00,VWS V14.01,2013-01-15 17:12:00,
2013-01-15 12:17:00,80.4,57.8,30.18,SSW,202,2.9,2.9,46,0.00,,---,0.00,VWS V14.01,2013-01-15 17:17:00,
2013-01-15 12:22:00,80.6,56.7,30.18,SSE,158,3.8,4.3,44,0.00,,---,0.00,VWS V14.01,2013-01-15 17:22:00,
2013-01-15 12:27:00,81.0,57.6,30.18,NE,45,2.7,2.7,45,0.00,,---,0.00,VWS V14.01,2013-01-15 17:27:00,
2013-01-15 12:32:00,81.7,58.3,30.18,East,90,4.3,4.3,45,0.00,,---,0.00,VWS V14.01,2013-01-15 17:32:00,
2013-01-15 12:37:00,82.0,58.0,30.18,SSE,158,2.7,3.4,44,0.00,,---,0.00,VWS V14.01,2013-01-15 17:37:00,
2013-01-15 12:42:00,82.6,57.8,30.18,South,180,2.5,5.6,43,0.00,,---,0.00,VWS V14.01,2013-01-15 17:42:00,
2013-01-15 12:47:00,82.2,56.2,30.18,SSW,202,7.4,7.6,41,0.00,,---,0.00,VWS V14.01,2013-01-15 17:47:00,
2013-01-15 12:52:00,82.4,57.0,30.18,SSW,202,2.9,4.0,42,0.00,,---,0.00,VWS V14.01,2013-01-15 17:52:00,
2013-01-15 12:57:00,82.4,57.0,30.18,SSW,202,7.2,7.2,42,0.00,,---,0.00,VWS V14.01,2013-01-15 17:57:00,
2013-01-15 13:02:00,81.9,56.5,30.15,WSW,248,2.9,6.3,42,0.00,,---,0.00,VWS V14.01,2013-01-15 18:02:00,
2013-01-15 13:07:00,82.2,57.5,30.15,SSE,158,1.1,1.1,43,0.00,,---,0.00,VWS V14.01,2013-01-15 18:07:00,
2013-01-15 13:12:00,82.4,57.0,30.15,SSE,158,1.1,1.1,42,0.00,,---,0.00,VWS V14.01,2013-01-15 18:12:00,
2013-01-15 13:17:00,82.2,57.5,30.15,SSE,158,1.1,1.1,43,0.00,,---,0.00,VWS V14.01,2013-01-15 18:17:00,
2013-01-15 13:23:00,82.0,56.7,30.15,SW,225,6.5,6.9,42,0.00,,---,0.00,VWS V14.01,2013-01-15 18:23:00,
2013-01-15 13:28:00,81.0,55.7,30.15,SSW,202,4.3,5.4,42,0.00,,---,0.00,VWS V14.01,2013-01-15 18:28:00,
2013-01-15 13:33:00,81.1,56.5,30.15,South,180,3.4,4.3,43,0.00,,---,0.00,VWS V14.01,2013-01-15 18:33:00,
2013-01-15 13:38:00,80.8,55.6,30.15,WSW,248,4.3,4.3,42,0.00,,---,0.00,VWS V14.01,2013-01-15 18:38:00,
2013-01-15 13:43:00,80.6,55.4,30.15,WSW,248,5.8,5.8,42,0.00,,---,0.00,VWS V14.01,2013-01-15 18:43:00,
2013-01-15 13:48:00,81.0,56.4,30.15,SW,225,3.6,3.6,43,0.00,,---,0.00,VWS V14.01,2013-01-15 18:48:00,
2013-01-15 13:53:00,81.3,56.7,30.15,SW,225,5.4,6.5,43,0.00,,---,0.00,VWS V14.01,2013-01-15 18:53:00,
2013-01-15 13:59:00,81.3,56.7,30.15,NW,315,3.8,5.8,43,0.00,,---,0.00,VWS V14.01,2013-01-15 18:59:00,
2013-01-15 14:04:00,81.3,56.1,30.15,WSW,248,1.1,3.6,42,0.00,,---,0.00,VWS V14.01,2013-01-15 19:04:00,
2013-01-15 14:09:00,81.7,57.0,30.15,West,270,2.0,5.6,43,0.00,,---,0.00,VWS V14.01,2013-01-15 19:09:00,
2013-01-15 14:14:00,82.2,57.5,30.15,SSW,202,2.7,3.8,43,0.00,,---,0.00,VWS V14.01,2013-01-15 19:14:00,
2013-01-15 14:19:00,82.6,56.5,30.15,WNW,292,3.8,3.8,41,0.00,,---,0.00,VWS V14.01,2013-01-15 19:19:00,
2013-01-15 14:24:00,82.6,55.8,30.15,South,180,3.6,4.3,40,0.00,,---,0.00,VWS V14.01,2013-01-15 19:24:00,
2013-01-15 14:29:00,82.2,54.8,30.15,SSW,202,3.6,4.9,39,0.00,,---,0.00,VWS V14.01,2013-01-15 19:29:00,
2013-01-15 14:35:00,82.4,55.0,30.15,NE,45,3.8,3.8,39,0.00,,---,0.00,VWS V14.01,2013-01-15 19:35:00,
2013-01-15 14:40:00,82.6,53.7,30.15,SW,225,1.1,5.4,37,0.00,,---,0.00,VWS V14.01,2013-01-15 19:40:00,
2013-01-15 14:45:00,82.4,54.3,30.15,SSW,202,4.3,4.3,38,0.00,,---,0.00,VWS V14.01,2013-01-15 19:45:00,
2013-01-15 14:50:00,82.0,53.2,30.15,SSW,202,4.0,5.6,37,0.00,,---,0.00,VWS V14.01,2013-01-15 19:50:00,
2013-01-15 14:55:00,81.9,53.8,30.15,SSW,202,3.8,3.8,38,0.00,,---,0.00,VWS V14.01,2013-01-15 19:55:00,
2013-01-15 15:00:00,81.7,53.6,30.15,NW,315,2.7,2.7,38,0.00,,---,0.00,VWS V14.01,2013-01-15 20:00:00,
2013-01-15 15:05:00,81.7,52.9,30.15,SSE,158,3.6,3.6,37,0.00,,---,0.00,VWS V14.01,2013-01-15 20:05:00,
2013-01-15 15:10:00,81.5,52.7,30.15,ESE,112,2.9,6.3,37,0.00,,---,0.00,VWS V14.01,2013-01-15 20:10:00,
2013-01-15 15:16:00,81.5,53.5,30.15,SSW,202,3.8,3.8,38,0.00,,---,0.00,VWS V14.01,2013-01-15 20:16:00,
2013-01-15 15:21:00,81.0,52.3,30.15,South,180,4.9,4.9,37,0.00,,---,0.00,VWS V14.01,2013-01-15 20:21:00,
2013-01-15 15:26:00,81.0,53.0,30.15,SSW,202,3.1,3.1,38,0.00,,---,0.00,VWS V14.01,2013-01-15 20:26:00,
2013-01-15 15:32:00,81.1,52.4,30.15,SSW,202,2.5,2.9,37,0.00,,---,0.00,VWS V14.01,2013-01-15 20:32:00,
2013-01-15 15:37:00,81.1,52.4,30.15,SSE,158,2.7,2.7,37,0.00,,---,0.00,VWS V14.01,2013-01-15 20:37:00,
2013-01-15 15:42:00,81.0,53.0,30.15,SW,225,4.3,5.6,38,0.00,,---,0.00,VWS V14.01,2013-01-15 20:42:00,
2013-01-15 15:48:00,80.8,52.8,30.15,SSW,202,9.2,9.2,38,0.00,,---,0.00,VWS V14.01,2013-01-15 20:48:00,
2013-01-15 15:53:00,80.4,52.5,30.15,WSW,248,3.8,3.8,38,0.00,,---,0.00,VWS V14.01,2013-01-15 20:53:00,
2013-01-15 15:58:00,80.4,53.2,30.15,SSW,202,3.4,4.7,39,0.00,,---,0.00,VWS V14.01,2013-01-15 20:58:00,
2013-01-15 16:03:00,80.2,53.1,30.15,WNW,292,3.6,4.9,39,0.00,,---,0.00,VWS V14.01,2013-01-15 21:03:00,
2013-01-15 16:08:00,79.9,52.7,30.15,SE,135,6.3,6.3,39,0.00,,---,0.00,VWS V14.01,2013-01-15 21:08:00,
2013-01-15 16:14:00,79.5,52.4,30.15,SW,225,2.5,4.3,39,0.00,,---,0.00,VWS V14.01,2013-01-15 21:14:00,
2013-01-15 16:20:00,79.2,52.8,30.15,South,180,5.8,5.8,40,0.00,,---,0.00,VWS V14.01,2013-01-15 21:20:00,
2013-01-15 16:25:00,79.0,53.3,30.15,West,270,3.4,3.4,41,0.00,,---,0.00,VWS V14.01,2013-01-15 21:25:00,
2013-01-15 16:31:00,79.0,53.3,30.15,WNW,292,0.0,1.3,41,0.00,,---,0.00,VWS V14.01,2013-01-15 21:31:00,
2013-01-15 16:36:00,79.0,54.0,30.15,WSW,248,1.3,1.3,42,0.00,,---,0.00,VWS V14.01,2013-01-15 21:36:00,
2013-01-15 16:41:00,78.8,54.4,30.15,SSW,202,0.0,5.8,43,0.00,,---,0.00,VWS V14.01,2013-01-15 21:41:00,
2013-01-15 16:46:00,78.6,54.9,30.15,WSW,248,3.6,3.6,44,0.00,,---,0.00,VWS V14.01,2013-01-15 21:46:00,
2013-01-15 16:51:00,78.6,54.9,30.15,SW,225,0.0,0.9,44,0.00,,---,0.00,VWS V14.01,2013-01-15 21:51:00,
2013-01-15 16:56:00,78.6,54.9,30.15,SW,225,1.6,2.0,44,0.00,,---,0.00,VWS V14.01,2013-01-15 21:56:00,
2013-01-15 17:01:00,78.3,54.6,30.15,SSW,202,1.3,1.3,44,0.00,,---,0.00,VWS V14.01,2013-01-15 22:01:00,
2013-01-15 17:07:00,78.1,54.4,30.15,SSW,202,2.0,2.0,44,0.00,,---,0.00,VWS V14.01,2013-01-15 22:07:00,
2013-01-15 17:13:00,78.1,54.4,30.15,SSW,202,3.4,4.3,44,0.00,,---,0.00,VWS V14.01,2013-01-15 22:13:00,
2013-01-15 17:18:00,78.1,54.4,30.15,WNW,292,0.0,1.6,44,0.00,,---,0.00,VWS V14.01,2013-01-15 22:18:00,
2013-01-15 17:24:00,77.2,54.2,30.15,WNW,292,1.1,2.5,45,0.00,,---,0.00,VWS V14.01,2013-01-15 22:24:00,
2013-01-15 17:29:00,76.8,54.5,30.15,South,180,0.0,0.0,46,0.00,,---,0.00,VWS V14.01,2013-01-15 22:29:00,
2013-01-15 17:34:00,76.6,54.9,30.15,SSW,202,2.5,2.5,47,0.00,,---,0.00,VWS V14.01,2013-01-15 22:34:00,
2013-01-15 17:39:00,76.5,54.8,30.15,SSW,202,0.0,0.0,47,0.00,,---,0.00,VWS V14.01,2013-01-15 22:39:00,
2013-01-15 17:44:00,76.1,55.0,30.15,West,270,0.0,2.9,48,0.00,,---,0.00,VWS V14.01,2013-01-15 22:44:00,
2013-01-15 17:49:00,75.7,54.7,30.15,SSW,202,0.0,0.0,48,0.00,,---,0.00,VWS V14.01,2013-01-15 22:49:00,
2013-01-15 17:54:00,75.6,55.1,30.15,WNW,292,0.0,0.0,49,0.00,,---,0.00,VWS V14.01,2013-01-15 22:54:00,
2013-01-15 17:59:00,75.4,55.5,30.15,WSW,248,0.0,0.0,50,0.00,,---,0.00,VWS V14.01,2013-01-15 22:59:00,
2013-01-15 18:04:00,75.0,55.1,30.15,SW,225,0.0,0.0,50,0.00,,---,0.00,VWS V14.01,2013-01-15 23:04:00,
2013-01-15 18:09:00,74.8,55.0,30.15,SW,225,0.0,0.0,50,0.00,,---,0.00,VWS V14.01,2013-01-15 23:09:00,
2013-01-15 18:14:00,74.7,55.3,30.15,SW,225,0.0,0.0,51,0.00,,---,0.00,VWS V14.01,2013-01-15 23:14:00,
2013-01-15 18:19:00,74.3,55.6,30.15,SW,225,0.0,0.0,52,0.00,,---,0.00,VWS V14.01,2013-01-15 23:19:00,
2013-01-15 18:24:00,73.9,55.2,30.15,SW,225,0.0,0.0,52,0.00,,---,0.00,VWS V14.01,2013-01-15 23:24:00,
2013-01-15 18:29:00,73.6,55.4,30.15,SW,225,0.0,0.0,53,0.00,,---,0.00,VWS V14.01,2013-01-15 23:29:00,
2013-01-15 18:34:00,73.4,55.8,30.15,SW,225,0.0,0.0,54,0.00,,---,0.00,VWS V14.01,2013-01-15 23:34:00,
2013-01-15 18:39:00,73.0,55.9,30.15,SW,225,0.0,0.0,55,0.00,,---,0.00,VWS V14.01,2013-01-15 23:39:00,
2013-01-15 18:44:00,72.9,55.8,30.15,SW,225,0.0,0.0,55,0.00,,---,0.00,VWS V14.01,2013-01-15 23:44:00,
2013-01-15 18:49:00,72.5,55.9,30.15,SW,225,0.0,0.0,56,0.00,,---,0.00,VWS V14.01,2013-01-15 23:49:00,
2013-01-15 18:54:00,72.3,56.2,30.15,South,180,0.0,0.0,57,0.00,,---,0.00,VWS V14.01,2013-01-15 23:54:00,
2013-01-15 18:59:00,72.1,56.1,30.15,South,180,0.0,0.0,57,0.00,,---,0.00,VWS V14.01,2013-01-15 23:59:00,
2013-01-15 19:04:00,72.0,56.4,30.15,South,180,0.0,0.0,58,0.00,,---,0.00,VWS V14.01,2013-01-16 00:04:00,
2013-01-15 19:09:00,71.8,56.2,30.15,South,180,0.0,0.0,58,0.00,,---,0.00,VWS V14.01,2013-01-16 00:09:00,
2013-01-15 19:14:00,71.6,56.5,30.15,South,180,0.0,0.0,59,0.00,,---,0.00,VWS V14.01,2013-01-16 00:14:00,
2013-01-15 19:19:00,71.4,56.8,30.15,South,180,0.0,0.0,60,0.00,,---,0.00,VWS V14.01,2013-01-16 00:19:00,
2013-01-15 19:24:00,71.1,56.5,30.15,South,180,0.0,0.0,60,0.00,,---,0.00,VWS V14.01,2013-01-16 00:24:00,
2013-01-15 19:29:00,70.9,56.8,30.15,South,180,0.0,0.0,61,0.00,,---,0.00,VWS V14.01,2013-01-16 00:29:00,
2013-01-15 19:35:00,70.9,56.8,30.15,SSE,158,0.0,0.0,61,0.00,,---,0.00,VWS V14.01,2013-01-16 00:35:00,
2013-01-15 19:40:00,70.5,56.9,30.15,SE,135,0.0,0.0,62,0.00,,---,0.00,VWS V14.01,2013-01-16 00:40:00,
2013-01-15 19:45:00,70.3,56.7,30.15,SE,135,0.0,0.0,62,0.00,,---,0.00,VWS V14.01,2013-01-16 00:45:00,
2013-01-15 19:50:00,70.3,56.7,30.15,SE,135,0.0,0.0,62,0.00,,---,0.00,VWS V14.01,2013-01-16 00:50:00,
2013-01-15 19:55:00,70.2,57.0,30.15,SE,135,0.0,0.0,63,0.00,,---,0.00,VWS V14.01,2013-01-16 00:55:00,
2013-01-15 20:00:00,69.8,56.7,30.15,ENE,68,0.0,0.0,63,0.00,,---,0.00,VWS V14.01,2013-01-16 01:00:00,
2013-01-15 20:05:00,69.8,56.7,30.15,ENE,68,0.0,0.0,63,0.00,,---,0.00,VWS V14.01,2013-01-16 01:05:00,
2013-01-15 20:10:00,69.6,56.9,30.15,ESE,112,0.0,0.0,64,0.00,,---,0.00,VWS V14.01,2013-01-16 01:10:00,
2013-01-15 20:15:00,69.6,57.3,30.15,SE,135,0.0,0.0,65,0.00,,---,0.00,VWS V14.01,2013-01-16 01:15:00,
2013-01-15 20:20:00,69.4,57.2,30.15,SE,135,0.0,0.0,65,0.00,,---,0.00,VWS V14.01,2013-01-16 01:20:00,
2013-01-15 20:25:00,69.3,57.0,30.15,SE,135,0.0,0.0,65,0.00,,---,0.00,VWS V14.01,2013-01-16 01:25:00,
2013-01-15 20:31:00,69.1,56.8,30.15,East,90,0.0,0.0,65,0.00,,---,0.00,VWS V14.01,2013-01-16 01:31:00,
2013-01-15 20:36:00,68.9,56.7,30.15,East,90,0.0,0.0,65,0.00,,---,0.00,VWS V14.01,2013-01-16 01:36:00,
2013-01-15 20:41:00,68.9,56.7,30.15,East,90,0.0,0.0,65,0.00,,---,0.00,VWS V14.01,2013-01-16 01:41:00,
2013-01-15 20:46:00,68.7,56.9,30.15,East,90,0.0,0.0,66,0.00,,---,0.00,VWS V14.01,2013-01-16 01:46:00,
2013-01-15 20:52:00,68.5,56.7,30.15,ESE,112,0.0,0.0,66,0.00,,---,0.00,VWS V14.01,2013-01-16 01:52:00,
2013-01-15 20:57:00,68.4,56.6,30.15,East,90,0.0,0.0,66,0.00,,---,0.00,VWS V14.01,2013-01-16 01:57:00,
2013-01-15 21:04:00,68.4,56.6,30.15,East,90,0.0,0.0,66,0.00,,---,0.00,VWS V14.01,2013-01-16 02:04:00,
2013-01-15 21:09:00,68.2,56.8,30.15,East,90,0.0,0.0,67,0.00,,---,0.00,VWS V14.01,2013-01-16 02:09:00,
2013-01-15 21:14:00,68.0,56.7,30.15,East,90,0.0,0.0,67,0.00,,---,0.00,VWS V14.01,2013-01-16 02:14:00,
2013-01-15 21:19:00,67.8,56.9,30.15,ESE,112,0.0,0.0,68,0.00,,---,0.00,VWS V14.01,2013-01-16 02:19:00,
2013-01-15 21:24:00,67.8,56.9,30.15,ESE,112,0.0,0.0,68,0.00,,---,0.00,VWS V14.01,2013-01-16 02:24:00,
2013-01-15 21:29:00,67.8,56.9,30.15,ESE,112,0.0,0.0,68,0.00,,---,0.00,VWS V14.01,2013-01-16 02:29:00,
2013-01-15 21:34:00,67.8,56.9,30.15,ESE,112,0.0,0.0,68,0.00,,---,0.00,VWS V14.01,2013-01-16 02:34:00,
2013-01-15 21:39:00,67.6,56.7,30.15,East,90,0.0,0.0,68,0.00,,---,0.00,VWS V14.01,2013-01-16 02:39:00,
2013-01-15 21:44:00,67.6,56.7,30.15,East,90,0.0,0.0,68,0.00,,---,0.00,VWS V14.01,2013-01-16 02:44:00,
2013-01-15 21:49:00,67.6,57.1,30.15,ESE,112,0.0,0.0,69,0.00,,---,0.00,VWS V14.01,2013-01-16 02:49:00,
2013-01-15 21:54:00,67.5,57.0,30.15,ESE,112,0.0,0.0,69,0.00,,---,0.00,VWS V14.01,2013-01-16 02:54:00,
2013-01-15 21:59:00,67.5,57.0,30.15,ESE,112,0.0,0.0,69,0.00,,---,0.00,VWS V14.01,2013-01-16 02:59:00,
2013-01-15 22:04:00,67.3,56.8,30.15,ESE,112,0.0,0.0,69,0.00,,---,0.00,VWS V14.01,2013-01-16 03:04:00,
2013-01-15 22:10:00,67.3,56.8,30.15,ESE,112,0.0,0.0,69,0.00,,---,0.00,VWS V14.01,2013-01-16 03:10:00,
2013-01-15 22:15:00,67.3,56.8,30.15,East,90,0.0,0.0,69,0.00,,---,0.00,VWS V14.01,2013-01-16 03:15:00,
2013-01-15 22:20:00,67.3,57.2,30.15,East,90,0.0,0.0,70,0.00,,---,0.00,VWS V14.01,2013-01-16 03:20:00,
2013-01-15 22:25:00,67.3,57.2,30.15,North,0,0.0,0.0,70,0.00,,---,0.00,VWS V14.01,2013-01-16 03:25:00,
2013-01-15 22:31:00,67.3,57.2,30.15,NNE,22,0.0,0.0,70,0.00,,---,0.00,VWS V14.01,2013-01-16 03:31:00,
2013-01-15 22:36:00,67.5,57.7,30.15,NNE,22,0.0,0.0,71,0.00,,---,0.00,VWS V14.01,2013-01-16 03:36:00,
2013-01-15 22:41:00,67.5,57.7,30.15,North,0,0.0,0.0,71,0.00,,---,0.00,VWS V14.01,2013-01-16 03:41:00,
2013-01-15 22:47:00,67.6,57.9,30.15,North,0,0.0,0.0,71,0.00,,---,0.00,VWS V14.01,2013-01-16 03:47:00,
2013-01-15 22:53:00,67.6,57.9,30.15,North,0,0.0,0.0,71,0.00,,---,0.00,VWS V14.01,2013-01-16 03:53:00,
2013-01-15 22:58:00,67.8,58.1,30.15,SSE,158,0.0,0.0,71,0.00,,---,0.00,VWS V14.01,2013-01-16 03:58:00,
2013-01-15 23:03:00,68.0,58.3,30.15,ENE,68,0.0,0.0,71,0.00,,---,0.00,VWS V14.01,2013-01-16 04:03:00,
2013-01-15 23:09:00,68.0,58.3,30.15,ESE,112,0.0,0.0,71,0.00,,---,0.00,VWS V14.01,2013-01-16 04:09:00,
2013-01-15 23:14:00,68.2,58.4,30.15,ESE,112,0.0,0.0,71,0.00,,---,0.00,VWS V14.01,2013-01-16 04:14:00,
2013-01-15 23:19:00,68.2,58.4,30.15,ESE,112,0.0,0.0,71,0.00,,---,0.00,VWS V14.01,2013-01-16 04:19:00,
2013-01-15 23:24:00,68.2,58.4,30.15,North,0,0.0,0.0,71,0.00,,---,0.00,VWS V14.01,2013-01-16 04:24:00,
2013-01-15 23:29:00,68.2,58.4,30.15,North,0,0.0,0.0,71,0.00,,---,0.00,VWS V14.01,2013-01-16 04:29:00,
2013-01-15 23:34:00,68.4,58.6,30.15,East,90,0.0,0.0,71,0.00,,---,0.00,VWS V14.01,2013-01-16 04:34:00,
2013-01-15 23:39:00,68.4,58.6,30.15,East,90,0.0,0.0,71,0.00,,---,0.00,VWS V14.01,2013-01-16 04:39:00,
2013-01-15 23:44:00,68.4,58.2,30.15,East,90,0.0,0.0,70,0.00,,---,0.00,VWS V14.01,2013-01-16 04:44:00,
2013-01-15 23:49:00,68.2,58.0,30.15,East,90,0.0,0.0,70,0.00,,---,0.00,VWS V14.01,2013-01-16 04:49:00,
2013-01-15 23:54:00,68.2,58.0,30.15,East,90,0.0,0.0,70,0.00,,---,0.00,VWS V14.01,2013-01-16 04:54:00,
2013-01-15 23:59:00,68.2,58.0,30.15,ESE,112,0.0,0.0,70,0.00,,---,0.00,VWS V14.01,2013-01-16 04:59:00,